tititudorancea.com
Station Historical Data
Daily Summary for January 11, 2019 Units:  Metric    English   Both
« Previous Day
Next Day »
Daily Weekly Monthly Yearly Custom
  High: Low: Average:
Temperature: -17.8 °C 8.3 °C 21.3 °C
Dew Point: -17.8 °C 0.6 °C 6.1 °C
Humidity: Humidity % 14 % 47 %
Wind Speed: 0 km/h 0 km/h 8.9 km/h
Wind Gust: 0 km/h - -
Wind:- - WSW
Pressure: 0 hPa 1008.7 hPa -
Precipitation: 0 mm    
Historical Graphs
 
 
Ararat weather Find more about Weather in Ararat, AU


 



 


Tabular Data for January 11, 2019
Time Temperature Dew Point Pressure Wind Wind Speed Wind Gust Humidity Rainfall Rate (Hourly)
-17.8 °C -17.8 °C 0 hPa Calm     Humidity % 0 mm
00:04 14.8 °C 8.1 °C 1015.8 hPa North 14.8 km/h 8.2 km/h 64 % 0 mm
00:09 14.8 °C 8.3 °C 1015.8 hPa South 11.1 km/h 9.2 km/h 65 % 0 mm
00:14 14.7 °C 8.2 °C 1015.8 hPa South 9.3 km/h 4.8 km/h 65 % 0 mm
00:19 14.7 °C 8.2 °C 1015.8 hPa South 7.4 km/h 3.9 km/h 65 % 0 mm
00:24 14.7 °C 8.2 °C 1015.8 hPa South 13 km/h 8 km/h 65 % 0 mm
00:29 14.7 °C 8.4 °C 1015.8 hPa South 9.3 km/h 8.7 km/h 66 % 0 mm
00:34 14.7 °C 8.4 °C 1015.8 hPa South 5.6 km/h 5.1 km/h 66 % 0 mm
00:39 14.6 °C 8.3 °C 1015.8 hPa South 9.3 km/h 8.9 km/h 66 % 0 mm
00:44 14.6 °C 8.3 °C 1015.8 hPa South 14.5 km/h 4.5 km/h 66 % 0 mm
00:49 14.6 °C 8.5 °C 1015.8 hPa South 16.7 km/h 6.8 km/h 67 % 0 mm
00:54 14.6 °C 8.7 °C 1015.5 hPa SSE 18.5 km/h 11.6 km/h 68 % 0 mm
00:59 14.5 °C 8.9 °C 1015.5 hPa SSE 18.5 km/h 11.7 km/h 69 % 0 mm
01:04 14.4 °C 8.8 °C 1015.5 hPa South 18.5 km/h 12.6 km/h 69 % 0 mm
01:09 14.4 °C 9 °C 1015.5 hPa North 18.5 km/h 13 km/h 70 % 0 mm
01:14 14.3 °C 8.9 °C 1015.5 hPa SSE 18.5 km/h 11.7 km/h 70 % 0 mm
01:19 14.2 °C 9.1 °C 1015.5 hPa SSE 16.7 km/h 10.1 km/h 71 % 0 mm
01:24 14.1 °C 8.9 °C 1015.5 hPa SSE 19.3 km/h 9.8 km/h 71 % 0 mm
01:29 14 °C 9.1 °C 1015.1 hPa SSE 18.5 km/h 11.1 km/h 72 % 0 mm
01:34 13.9 °C 8.9 °C 1015.1 hPa South 20.4 km/h 8.2 km/h 72 % 0 mm
01:39 13.8 °C 9 °C 1015.1 hPa South 11.1 km/h 5.5 km/h 73 % 0 mm
01:44 13.7 °C 8.9 °C 1015.1 hPa North 14.8 km/h 7.4 km/h 73 % 0 mm
01:49 13.7 °C 9.1 °C 1015.1 hPa South 11.1 km/h 5.3 km/h 74 % 0 mm
01:54 13.6 °C 9.1 °C 1015.1 hPa South 11.1 km/h 2.6 km/h 74 % 0 mm
01:59 13.5 °C 8.9 °C 1014.8 hPa South 11.1 km/h 8.2 km/h 74 % 0 mm
02:04 13.4 °C 9.1 °C 1014.8 hPa South 16.7 km/h 7.2 km/h 75 % 0 mm
02:09 13.3 °C 9.2 °C 1014.8 hPa North 9.7 km/h 5.5 km/h 76 % 0 mm
02:14 13.2 °C 9.3 °C 1014.8 hPa South 11.1 km/h 9 km/h 77 % 0 mm
02:19 13.1 °C 9.2 °C 1014.4 hPa South 13 km/h 9 km/h 77 % 0 mm
02:24 13 °C 9.3 °C 1014.8 hPa South 13 km/h 10 km/h 78 % 0 mm
02:29 12.9 °C 9.2 °C 1014.4 hPa North 11.1 km/h 6.4 km/h 78 % 0 mm
02:34 12.8 °C 9.3 °C 1014.4 hPa South 11.3 km/h 7.2 km/h 79 % 0 mm
02:39 12.7 °C 9.2 °C 1014.4 hPa South 11.1 km/h 7.6 km/h 79 % 0 mm
02:44 12.7 °C 9.1 °C 1014.4 hPa South 7.4 km/h 8 km/h 79 % 0 mm
02:49 12.6 °C 9.2 °C 1014.4 hPa South 11.1 km/h 7.7 km/h 80 % 0 mm
02:54 12.5 °C 9.2 °C 1014.4 hPa South 11.1 km/h 8.2 km/h 80 % 0 mm
02:59 12.4 °C 9.1 °C 1014.4 hPa South 9.3 km/h 6.8 km/h 80 % 0 mm
03:04 12.3 °C 9.1 °C 1014.4 hPa North 11.1 km/h 7.1 km/h 81 % 0 mm
03:09 12.2 °C 9.1 °C 1014.4 hPa South 7.4 km/h 7.1 km/h 81 % 0 mm
03:14 12.2 °C 9 °C 1014.1 hPa South 8 km/h 5.3 km/h 81 % 0 mm
03:19 12.1 °C 9.1 °C 1014.1 hPa South 9.3 km/h 7.6 km/h 82 % 0 mm
03:24 12 °C 9 °C 1014.1 hPa South 9.3 km/h 6.4 km/h 82 % 0 mm
03:29 11.9 °C 8.9 °C 1014.1 hPa North 9.3 km/h 6.8 km/h 82 % 0 mm
03:34 11.9 °C 9.1 °C 1014.1 hPa South 7.4 km/h 5 km/h 83 % 0 mm
03:39 11.8 °C 9.1 °C 1014.1 hPa North 7.4 km/h 3.5 km/h 83 % 0 mm
03:44 11.8 °C 9.1 °C 1014.1 hPa North 5.6 km/h 2.1 km/h 83 % 0 mm
03:49 11.8 °C 9 °C 1014.1 hPa North 7.4 km/h 5 km/h 83 % 0 mm
03:54 11.8 °C 9 °C 1014.1 hPa South 8 km/h 6.8 km/h 83 % 0 mm
03:59 11.7 °C 8.9 °C 1014.1 hPa South 6.4 km/h 5.3 km/h 83 % 0 mm
04:04 11.7 °C 9.1 °C 1014.1 hPa South 5.6 km/h 2.3 km/h 84 % 0 mm
04:09 11.7 °C 9.1 °C 1014.1 hPa South 3.7 km/h 2.4 km/h 84 % 0 mm
04:14 11.6 °C 8.9 °C 1014.1 hPa South 6.4 km/h 3.9 km/h 84 % 0 mm
04:19 11.4 °C 8.7 °C 1014.1 hPa South 7.4 km/h 3.9 km/h 83 % 0 mm
04:24 11.3 °C 8.7 °C 1014.1 hPa South 5.6 km/h 3.5 km/h 84 % 0 mm
04:29 11.2 °C 8.6 °C 1014.1 hPa South 5.6 km/h 1.9 km/h 84 % 0 mm
04:34 11.2 °C 8.6 °C 1014.1 hPa North 1.9 km/h   84 % 0 mm
04:39 11 °C 8.4 °C 1013.8 hPa South 3.7 km/h 1.6 km/h 84 % 0 mm
04:44 10.9 °C 8.3 °C 1013.8 hPa Calm     84 % 0 mm
04:49 10.7 °C 8.1 °C 1013.8 hPa South 3.7 km/h   84 % 0 mm
04:54 10.6 °C 7.9 °C 1013.8 hPa Calm     84 % 0 mm
04:59 10.4 °C 8 °C 1014.1 hPa Calm     85 % 0 mm
05:04 10.2 °C 7.8 °C 1013.8 hPa Calm     85 % 0 mm
05:09 10.1 °C 7.7 °C 1013.8 hPa Calm     85 % 0 mm
05:14 10 °C 7.6 °C 1013.8 hPa Calm     85 % 0 mm
05:19 9.8 °C 7.4 °C 1013.8 hPa Calm     85 % 0 mm
05:24 9.7 °C 7.4 °C 1014.1 hPa Calm     86 % 0 mm
05:29 9.5 °C 7.3 °C 1014.1 hPa Calm     86 % 0 mm
05:34 9.4 °C 7.2 °C 1014.1 hPa Calm     86 % 0 mm
05:39 9.2 °C 7 °C 1014.1 hPa Calm     86 % 0 mm
05:44 9.2 °C 7.1 °C 1014.1 hPa North 1.9 km/h   87 % 0 mm
05:49 9.1 °C 7 °C 1014.1 hPa Calm     87 % 0 mm
05:54 8.9 °C 6.9 °C 1014.1 hPa Calm     87 % 0 mm
05:59 8.8 °C 6.7 °C 1014.1 hPa Calm     87 % 0 mm
06:04 8.7 °C 6.6 °C 1014.1 hPa Calm     87 % 0 mm
06:09 8.7 °C 6.8 °C 1014.1 hPa Calm     88 % 0 mm
06:14 8.7 °C 6.8 °C 1014.1 hPa Calm     88 % 0 mm
06:19 8.7 °C 6.8 °C 1014.1 hPa Calm     88 % 0 mm
06:24 8.5 °C 6.6 °C 1014.1 hPa Calm     88 % 0 mm
06:29 8.4 °C 6.5 °C 1014.1 hPa Calm     88 % 0 mm
06:34 8.3 °C 6.4 °C 1014.1 hPa Calm     88 % 0 mm
06:39 8.3 °C 6.6 °C 1014.1 hPa Calm     89 % 0 mm
06:44 8.4 °C 6.9 °C 1013.8 hPa Calm     90 % 0 mm
06:49 8.7 °C 7.1 °C 1013.8 hPa Calm     90 % 0 mm
06:54 9 °C 7.4 °C 1013.8 hPa Calm     90 % 0 mm
06:59 9.3 °C 7.7 °C 1014.1 hPa Calm     90 % 0 mm
07:04 9.6 °C 8.1 °C 1014.1 hPa Calm     90 % 0 mm
07:09 10 °C 8.4 °C 1014.1 hPa Calm     90 % 0 mm
07:14 10.4 °C 8.9 °C 1014.1 hPa Calm     90 % 0 mm
07:19 10.8 °C 9.1 °C 1014.1 hPa Calm     89 % 0 mm
07:24 11.2 °C 9.3 °C 1014.1 hPa Calm     88 % 0 mm
07:29 11.7 °C 9.6 °C 1014.1 hPa Calm     87 % 0 mm
07:34 12.1 °C 9.8 °C 1014.1 hPa Calm     86 % 0 mm
07:39 12.4 °C 9.9 °C 1014.1 hPa Calm     85 % 0 mm
07:44 12.8 °C 10 °C 1014.1 hPa Calm     83 % 0 mm
07:49 13.2 °C 10.2 °C 1014.1 hPa Calm     82 % 0 mm
07:54 13.6 °C 10.2 °C 1014.1 hPa Calm     80 % 0 mm
07:59 13.9 °C 10.3 °C 1014.1 hPa Calm     79 % 0 mm
08:04 14.4 °C 10.4 °C 1014.1 hPa Calm     77 % 0 mm
08:09 14.9 °C 10.7 °C 1014.1 hPa Calm     76 % 0 mm
08:14 15.4 °C 10.8 °C 1014.4 hPa Calm     74 % 0 mm
08:19 15.6 °C 10.6 °C 1014.4 hPa Calm     72 % 0 mm
08:24 15.9 °C 10.4 °C 1014.4 hPa Calm     70 % 0 mm
08:29 16.3 °C 10.6 °C 1014.1 hPa Calm     69 % 0 mm
08:34 16.7 °C 10.5 °C 1014.1 hPa Calm   0.2 km/h 67 % 0 mm
08:39 17.1 °C 10.7 °C 1014.1 hPa South 1.9 km/h   66 % 0 mm
08:44 17.3 °C 10.2 °C 1014.1 hPa Calm     63 % 0 mm
08:49 17.6 °C 10.7 °C 1014.1 hPa South 1.6 km/h   64 % 0 mm
08:54 18.3 °C 10.9 °C 1014.1 hPa Calm     62 % 0 mm
08:59 18.7 °C 10 °C 1014.1 hPa Calm     57 % 0 mm
09:04 18.9 °C 9.9 °C 1014.1 hPa South 3.7 km/h   56 % 0 mm
09:09 19.4 °C 9.6 °C 1014.1 hPa South 5.6 km/h 3.4 km/h 53 % 0 mm
09:14 19.8 °C 9.3 °C 1014.1 hPa South 7.4 km/h 5.3 km/h 51 % 0 mm
09:19 20.2 °C 9.2 °C 1014.1 hPa South 6.4 km/h 5.6 km/h 49 % 0 mm
09:24 20.8 °C 8.4 °C 1014.1 hPa South 13 km/h 8 km/h 45 % 0 mm
09:29 21.3 °C 7.8 °C 1014.1 hPa South 9.3 km/h 7.7 km/h 42 % 0 mm
09:34 21.9 °C 8.4 °C 1014.1 hPa South 6.4 km/h 5.6 km/h 42 % 0 mm
09:39 22.4 °C 7.8 °C 1014.1 hPa South 9.3 km/h 7.1 km/h 39 % 0 mm
09:44 22.8 °C 6.9 °C 1013.8 hPa South 9.3 km/h 8.2 km/h 36 % 0 mm
09:49 23.2 °C 6.4 °C 1013.8 hPa West 19.3 km/h 14 km/h 34 % 0 mm
09:54 23.6 °C 6.3 °C 1013.8 hPa North 13 km/h 7.6 km/h 33 % 0 mm
09:59 23.9 °C 6.2 °C 1013.8 hPa North 16.7 km/h 11.1 km/h 32 % 0 mm
10:04 23.9 °C 5.3 °C 1013.8 hPa North 18.5 km/h 10.8 km/h 30 % 0 mm
10:09 24.2 °C 5.5 °C 1013.8 hPa WNW 11.1 km/h 8.7 km/h 30 % 0 mm
10:14 24.4 °C 4.7 °C 1013.8 hPa NW 13 km/h 7.9 km/h 28 % 0 mm
10:19 24.6 °C 5.4 °C 1013.4 hPa NW 8 km/h 5.8 km/h 29 % 0 mm
10:24 24.8 °C 6.1 °C 1013.4 hPa NW 9.7 km/h 5 km/h 30 % 0 mm
10:29 25.1 °C 4.7 °C 1013.4 hPa North 14.8 km/h 7.4 km/h 27 % 0 mm
10:34 25.3 °C 5.5 °C 1013.4 hPa NW 9.3 km/h 8 km/h 28 % 0 mm
10:39 25.7 °C 4.8 °C 1013.4 hPa North 17.7 km/h 10.5 km/h 26 % 0 mm
10:44 25.6 °C 4.7 °C 1013.4 hPa North 13 km/h 6.6 km/h 26 % 0 mm
10:49 25.5 °C 4.6 °C 1013.4 hPa NW 13 km/h 5.6 km/h 26 % 0 mm
10:54 25.7 °C 4.2 °C 1013.4 hPa North 9.3 km/h 5.3 km/h 25 % 0 mm
10:59 26.1 °C 4.5 °C 1013.4 hPa NW 14.8 km/h 8.9 km/h 25 % 0 mm
11:04 26 °C 4.4 °C 1013.4 hPa NNW 14.8 km/h 5.6 km/h 25 % 0 mm
11:09 26.3 °C 4.7 °C 1013.4 hPa North 18.5 km/h 15.9 km/h 25 % 0 mm
11:14 26.5 °C 4.3 °C 1013.4 hPa North 13 km/h 9.5 km/h 24 % 0 mm
11:19 26.5 °C 4.3 °C 1013.4 hPa North 13 km/h 7.2 km/h 24 % 0 mm
11:24 26.7 °C 3.8 °C 1013.4 hPa North 18.5 km/h 6.1 km/h 23 % 0 mm
11:29 26.6 °C 3.8 °C 1013.4 hPa North 13 km/h 10.1 km/h 23 % 0 mm
11:34 26.8 °C 3.3 °C 1013.4 hPa North 18.5 km/h 12.6 km/h 22 % 0 mm
11:39 27.1 °C 3.5 °C 1013.1 hPa North 8 km/h 9.7 km/h 22 % 0 mm
11:44 27.1 °C 2.9 °C 1013.1 hPa NNW 9.7 km/h 9.3 km/h 21 % 0 mm
11:49 27.4 °C 0.9 °C 1013.1 hPa North 9.3 km/h 7.4 km/h 18 % 0 mm
11:54 27.8 °C 2.1 °C 1013.1 hPa North 7.4 km/h 8 km/h 19 % 0 mm
11:59 27.8 °C 1.3 °C 1013.1 hPa NNW 12.9 km/h 11.9 km/h 18 % 0 mm
12:04 27.8 °C 2.1 °C 1013.1 hPa NW 11.1 km/h 9.3 km/h 19 % 0 mm
12:09 27.7 °C 2 °C 1012.8 hPa NW 13 km/h 10 km/h 19 % 0 mm
12:14 27.9 °C 2.9 °C 1012.8 hPa NW 14.8 km/h 9.8 km/h 20 % 0 mm
12:19 28.3 °C 0.9 °C 1012.8 hPa North 9.7 km/h 8.4 km/h 17 % 0 mm
12:24 28.5 °C 1.9 °C 1012.8 hPa North 16.1 km/h 9.5 km/h 18 % 0 mm
12:29 28.6 °C 2.7 °C 1012.8 hPa North 14.8 km/h 8.5 km/h 19 % 0 mm
12:34 28.3 °C 2.5 °C 1012.8 hPa NNW 16.7 km/h 10 km/h 19 % 0 mm
12:39 28.2 °C 2.3 °C 1012.4 hPa NNW 9.3 km/h 1.9 km/h 19 % 0 mm
12:44 28.9 °C 2.2 °C 1012.4 hPa NNE 19.3 km/h 15 km/h 18 % 0 mm
12:49 29 °C 2.3 °C 1012.4 hPa NNE 18.5 km/h 8.2 km/h 18 % 0 mm
12:54 29.3 °C 2.5 °C 1012.4 hPa NNE 18.5 km/h 7.6 km/h 18 % 0 mm
12:59 29.3 °C 2.6 °C 1012.4 hPa North 7.4 km/h 2.9 km/h 18 % 0 mm
13:04 29.6 °C 1.9 °C 1012.4 hPa NNW 18.5 km/h 12.4 km/h 17 % 0 mm
13:09 29.3 °C 0.9 °C 1012.4 hPa North 16.7 km/h 14.5 km/h 16 % 0 mm
13:14 29.5 °C 1.9 °C 1012.4 hPa North 18.5 km/h 11.9 km/h 17 % 0 mm
13:19 29.7 °C 2.1 °C 1012.1 hPa NNW 18.5 km/h 8 km/h 17 % 0 mm
13:24 29.7 °C 2.1 °C 1012.1 hPa NNW 19.3 km/h 12.4 km/h 17 % 0 mm
13:29 29.8 °C 1.2 °C 1012.1 hPa North 20.4 km/h 10.9 km/h 16 % 0 mm
13:34 29.8 °C 2.1 °C 1012.1 hPa North 11.1 km/h 2.7 km/h 17 % 0 mm
13:39 30.3 °C 1.7 °C 1012.1 hPa NNW 13 km/h 8.9 km/h 16 % 0 mm
13:44 30 °C 0.6 °C 1011.7 hPa WNW 13 km/h 10.9 km/h 15 % 0 mm
13:49 29.8 °C 2.2 °C 1011.7 hPa NW 14.8 km/h 5.8 km/h 17 % 0 mm
13:54 30.1 °C 1.5 °C 1011.7 hPa North 11.3 km/h 11.7 km/h 16 % 0 mm
13:59 30.3 °C 0.8 °C 1011.7 hPa North 9.3 km/h 3.9 km/h 15 % 0 mm
14:04 30.8 °C 1.2 °C 1011.7 hPa NW 24.1 km/h 14.6 km/h 15 % 0 mm
14:09 30.4 °C 1.7 °C 1011.7 hPa NW 16.7 km/h 10.5 km/h 16 % 0 mm
14:14 30.5 °C 1.8 °C 1011.4 hPa WNW 9.7 km/h 12.2 km/h 16 % 0 mm
14:19 30.5 °C 1.8 °C 1011.4 hPa NW 18.5 km/h 10.9 km/h 16 % 0 mm
14:24 30.6 °C 1 °C 1011.1 hPa NW 5.6 km/h 5.5 km/h 15 % 0 mm
14:29 30.8 °C 1.2 °C 1011.1 hPa WNW 22.5 km/h 13.4 km/h 15 % 0 mm
14:34 31.4 °C 1.7 °C 1011.4 hPa NW 20.4 km/h 12.7 km/h 15 % 0 mm
14:39 31.3 °C 0.6 °C 1011.4 hPa North 24.1 km/h 14.6 km/h 14 % 0 mm
14:44 31.3 °C 1.6 °C 1011.1 hPa West 18.5 km/h 9.5 km/h 15 % 0 mm
14:49 31.3 °C 1.6 °C 1011.1 hPa West 22.5 km/h 15.6 km/h 15 % 0 mm
14:54 31.6 °C 1.8 °C 1011.1 hPa NW 22.2 km/h 18.8 km/h 15 % 0 mm
14:59 31.3 °C 1.6 °C 1011.1 hPa WNW 22.2 km/h 20.8 km/h 15 % 0 mm
15:04 31.2 °C 1.5 °C 1010.7 hPa NW 13 km/h 7.9 km/h 15 % 0 mm
15:09 31.3 °C 2.4 °C 1011.1 hPa WNW 22.2 km/h 12.1 km/h 16 % 0 mm
15:14 31.2 °C 3.3 °C 1010.7 hPa North 22.5 km/h 15.8 km/h 17 % 0 mm
15:19 31.5 °C 3.5 °C 1010.7 hPa NW 13 km/h 6.6 km/h 17 % 0 mm
15:24 32 °C 3.1 °C 1010.7 hPa NNW 19.3 km/h 13.8 km/h 16 % 0 mm
15:29 31.8 °C 2.8 °C 1010.7 hPa North 16.7 km/h 11.6 km/h 16 % 0 mm
15:34 31.6 °C 2.7 °C 1010.7 hPa North 22.2 km/h 14.3 km/h 16 % 0 mm
15:39 31.6 °C 2.7 °C 1010.4 hPa WSW 13 km/h 12.1 km/h 16 % 0 mm
15:44 31.8 °C 2.8 °C 1010.7 hPa NNW 18.5 km/h 10.9 km/h 16 % 0 mm
15:49 31.6 °C 2.7 °C 1010.4 hPa NNE 16.7 km/h 7.7 km/h 16 % 0 mm
15:54 31.9 °C 2.9 °C 1010.4 hPa North 18.5 km/h 11.1 km/h 16 % 0 mm
15:59 32 °C 3.1 °C 1010 hPa NNW 20.9 km/h 16.9 km/h 16 % 0 mm
16:04 32.1 °C 3.1 °C 1010.4 hPa NW 18.5 km/h 8.2 km/h 16 % 0 mm
16:09 32.3 °C 3.3 °C 1010.4 hPa North 18.5 km/h 5.6 km/h 16 % 0 mm
16:14 32.3 °C 3.3 °C 1010 hPa NNE 6.4 km/h 8.2 km/h 16 % 0 mm
16:19 32.4 °C 3.4 °C 1010 hPa WNW 20.4 km/h 11.1 km/h 16 % 0 mm
16:24 32.4 °C 2.4 °C 1009.7 hPa West 13 km/h 8.5 km/h 15 % 0 mm
16:29 32.6 °C 3.5 °C 1009.7 hPa WNW 22.2 km/h 18 km/h 16 % 0 mm
16:34 32.4 °C 3.3 °C 1009.7 hPa NW 25.9 km/h 14.8 km/h 16 % 0 mm
16:39 32.2 °C 3.2 °C 1009.7 hPa NW 18.5 km/h 17.2 km/h 16 % 0 mm
16:44 32.3 °C 3.3 °C 1009.7 hPa NW 17.7 km/h 14.5 km/h 16 % 0 mm
16:49 32.3 °C 3.3 °C 1009.4 hPa WNW 5.6 km/h 2.3 km/h 16 % 0 mm
16:54 32.7 °C 3.6 °C 1009.7 hPa West 20.4 km/h 19.6 km/h 16 % 0 mm
16:59 32.6 °C 3.5 °C 1009.7 hPa WSW 20.4 km/h 13.7 km/h 16 % 0 mm
17:00 32.6 °C 4.4 °C 1009.7 hPa WNW 18.5 km/h 8.9 km/h 17 % 0 mm
19:04 32.7 °C 3.6 °C 1008.7 hPa NW 9.7 km/h 8.5 km/h 16 % 0 mm
19:05 32.7 °C 3.6 °C 1008.7 hPa NW 13 km/h 10.9 km/h 16 % 0 mm
19:20 32.7 °C 3.6 °C 1008.7 hPa NNW 8 km/h 16.1 km/h 16 % 0 mm
19:25 32.7 °C 4.5 °C 1008.7 hPa NW 11.3 km/h 22.5 km/h 17 % 0 mm
19:30 32.7 °C 4.4 °C 1008.7 hPa WNW 14.5 km/h 19.3 km/h 17 % 0 mm
19:35 32.5 °C 4.3 °C 1008.7 hPa WNW 9.7 km/h 19.3 km/h 17 % 0 mm
19:40 32.2 °C 4.1 °C 1008.7 hPa WNW 11.3 km/h 16.1 km/h 17 % 0 mm
19:45 31.8 °C 3.8 °C 1009 hPa NW 11.3 km/h 14.5 km/h 17 % 0 mm
19:50 31.8 °C 4.5 °C 1009 hPa NW 11.3 km/h 19.3 km/h 18 % 0 mm
19:55 31.7 °C 4.4 °C 1009 hPa NW 9.7 km/h 16.1 km/h 18 % 0 mm
20:00 31.7 °C 4.4 °C 1009 hPa NW 9.7 km/h 19.3 km/h 18 % 0 mm
20:05 31.7 °C 4.4 °C 1009 hPa NW 4.8 km/h 12.9 km/h 18 % 0 mm
20:10 31.7 °C 4.5 °C 1009 hPa NW 4.8 km/h 9.7 km/h 18 % 0 mm
20:15 31.8 °C 4.6 °C 1009 hPa WNW 3.2 km/h 8 km/h 18 % 0 mm
20:20 31.8 °C 4.6 °C 1009 hPa NW 4.8 km/h 8 km/h 18 % 0 mm
20:25 31.8 °C 4.5 °C 1009 hPa NW 4.8 km/h 8 km/h 18 % 0 mm
20:30 31.7 °C 4.4 °C 1009 hPa NW 1.6 km/h 6.4 km/h 18 % 0 mm
20:35 31.5 °C 5.1 °C 1009 hPa NW 1.6 km/h 4.8 km/h 19 % 0 mm
20:40 31.3 °C 4.9 °C 1009 hPa Calm   4.8 km/h 19 % 0 mm
20:45 31 °C 5.4 °C 1009 hPa Calm   4.8 km/h 20 % 0 mm
20:50 30.8 °C 5.2 °C 1009 hPa Calm   1.6 km/h 20 % 0 mm
20:55 30.4 °C 6.3 °C 1009.4 hPa Calm     22 % 0 mm
21:00 29.6 °C 5.6 °C 1009.4 hPa Calm     22 % 0 mm
21:05 28.8 °C 6.2 °C 1009.4 hPa Calm     24 % 0 mm
21:10 28 °C 6.2 °C 1009 hPa Calm     25 % 0 mm
21:15 27.5 °C 6.8 °C 1009.4 hPa Calm     27 % 0 mm
21:20 26.7 °C 7.2 °C 1009.4 hPa NW 3.2 km/h 4.8 km/h 29 % 0 mm
21:25 26.3 °C 6.8 °C 1009.4 hPa Calm   3.2 km/h 29 % 0 mm
21:30 26.1 °C 7.6 °C 1009.4 hPa Calm   3.2 km/h 31 % 0 mm
21:35 25.5 °C 6.7 °C 1009.4 hPa WNW 3.2 km/h 3.2 km/h 30 % 0 mm
21:45 25 °C 7.2 °C 1009.4 hPa Calm   3.2 km/h 32 % 0 mm
21:50 24.9 °C 6.6 °C 1009.7 hPa Calm   1.6 km/h 31 % 0 mm
21:55 24.7 °C 7.3 °C 1009.7 hPa Calm     33 % 0 mm
22:00 24.2 °C 7.4 °C 1009.7 hPa Calm     34 % 0 mm
22:05 24 °C 8 °C 1009.7 hPa Calm     36 % 0 mm
22:10 23.7 °C 7.8 °C 1009.7 hPa Calm     36 % 0 mm
22:20 23.3 °C 7.4 °C 1009.7 hPa NW 3.2 km/h 9.7 km/h 36 % 0 mm
22:25 23.4 °C 6.3 °C 1009.7 hPa SW 8 km/h 20.9 km/h 33 % 0 mm
22:30 24.1 °C 6.3 °C 1009.7 hPa SSW 4.8 km/h 14.5 km/h 32 % 0 mm
22:35 24.3 °C 6.5 °C 1009.7 hPa SSW 8 km/h 11.3 km/h 32 % 0 mm
22:45 24.2 °C 6.9 °C 1009.7 hPa SSW 8 km/h 14.5 km/h 33 % 0 mm
22:50 24.2 °C 6.9 °C 1009.7 hPa SSW 1.6 km/h 6.4 km/h 33 % 0 mm
22:55 23.9 °C 6.7 °C 1009.7 hPa SSW 1.6 km/h 3.2 km/h 33 % 0 mm
23:04 23.4 °C 6.7 °C 1009.7 hPa SSW 4.8 km/h 2.7 km/h 34 % 0 mm
23:09 23.2 °C 6.9 °C 1009.7 hPa SSW 5.6 km/h 2.1 km/h 35 % 0 mm
23:14 23 °C 6.7 °C 1009.7 hPa SSW 3.7 km/h 1.9 km/h 35 % 0 mm
23:19 22.7 °C 6.9 °C 1009.7 hPa SSW 3.7 km/h 3.1 km/h 36 % 0 mm
23:24 22.6 °C 6.7 °C 1009.7 hPa SSW 1.9 km/h   36 % 0 mm
23:29 22.4 °C 7 °C 1009.7 hPa Calm     37 % 0 mm
23:34 22.1 °C 7.1 °C 1009.7 hPa Calm     38 % 0 mm
23:39 21.5 °C 6.9 °C 1009.7 hPa Calm     39 % 0 mm
23:44 20.9 °C 7.6 °C 1009.7 hPa SSW 5.6 km/h 4.5 km/h 42 % 0 mm
23:49 20.9 °C 7.1 °C 1010 hPa SSW 3.7 km/h 3.4 km/h 41 % 0 mm
23:54 20.9 °C 7.2 °C 1009.7 hPa SSW 3.7 km/h 2.3 km/h 41 % 0 mm
23:59 20.9 °C 7.2 °C 1009.7 hPa SSW 1.9 km/h 0.2 km/h 41 % 0 mm
Ararat Weather
Compliments of Weather Underground - 2 mb
Click here to send mail.


ABOUT

Live weather data from Ararat, Victoria, Australia, 3377
Data uploaded from Cumulus every 5 minutes to Weather Underground.
This site then downloads the raw data for formatting and display.
Metric and imperial data can be displayed. Graphs and historical data available.
Includes Sun and Moon times and rain image live from BOM.

Check out Ararat Weather on Facebook, Twitter and Google +

Help support ongoing costs by checking out the ads





Follow @AraratWeather